Regional Weather Roundup
Issued by NWS Wakefield, VA

Home | Current Version | Previous Version | Graphics & Text | Print | Product List | Glossary On
Versions: 1 2 3 4 5 6 7 8 9 10 11 12 13 14 15 16 17 18 19 20 21 22 23 24 25 26 27 28 29 30 31 32 33 34 35 36 37 38 39 40 41 42 43 44 45 46 47 48 49 50
000
ASUS41 KAKQ 222010
RWRAKQ

REGIONAL WEATHER ROUNDUP
NATIONAL WEATHER SERVICE WAKEFIELD VA
300 PM EST MON DEC 22 2014

Note: "fair" indicates few or no clouds below 12,000 feet with no
significant weather and/or obstructions to visibility. * = Denotes
station may not report precipitation (e.g., rain,snow,etc.),
thunder or fog.

VAZ042-051-052>054-056-222100-
NORTHERN VIRGINIA

CITY           SKY/WX    TMP DP  RH WIND       PRES   REMARKS
WASH NATIONAL  LGT RAIN  37  30  75 NE10      30.17F
DULLES         LGT RAIN  33  31  92 N6        30.16F FOG
FORT BELVOIR   DRIZZLE   35  33  91 VRB3      30.17F FOG
QUANTICO       CLOUDY    36  33  89 NE12      30.17F FOG
FREDERICKSBRG* DRIZZLE   36  36 100 N6        30.14F
STAFFORD*      DRIZZLE   34  34 100 N3        30.19F
WARRENTON      DRIZZLE   35  35 100 N6        30.15F
CULPEPER*      DRIZZLE   36  34  93 N5        30.16F
MANASSAS*      CLOUDY    36  34  93 N7        30.17F FOG
LEESBURG*      MIX PCPN  34  34 100 N6        30.18F
WINCHESTER     MIX PCPN  34  30  86 CALM      30.15F
FRONT ROYAL*   CLOUDY    32  32 100 N3        30.14F VSB 1
LURAY*         DRIZZLE   34  34 100 NE5       30.12F
$$

VAZ048-049-060>072-079>083-222100-
CENTRAL AND SOUTH CENTRAL VIRGINIA

CITY           SKY/WX    TMP DP  RH WIND       PRES   REMARKS
RICHMOND       LGT RAIN  39  35  86 N12       30.08F FOG
CHESTERFIELD*  CLOUDY    37  27  65 N8        30.10S
PETERSBURG*    CLOUDY    39  38  96 N6        30.10R FOG
HANOVER        CLOUDY    36  35  96 N7        30.12F FOG
TAPPAHANNOCK*  HVY RAIN  38  35  88 N7        30.13F
QUINTON*       CLOUDY    38  37  97 NE6       30.08F
CHARLOTTSVILLE FOG       33  32  96 N5        30.13F VSB 3/4
GORDONSVILLE*  CLOUDY    33  32  96 N5        30.13S FOG
ORANGE*        DRIZZLE   34  34 100 NW8       30.15F
LOUISA*        DRIZZLE   34  34 100 N7        30.11S
BUMPASS*       CLOUDY    34  33  96 N6        30.12F
FARMVILLE*     RAIN      37  37 100 N7        30.11F
CREWE*         CLOUDY    36  34  94 N6        30.10S
FORT PICKETT*  CLOUDY    36  35  98 N8        30.10R
CHASE CITY*    CLOUDY    37  37 100 N6        30.08F
CLARKSVILLE*   CLOUDY    36  36 100 N5        30.07F
SOUTH HILL*    CLOUDY    37  36  96 N6        30.14R
LAWRENCEVILLE* CLOUDY    38  37  99 N3        30.07F
EMPORIA*       LGT SNOW  37  37 100 N6        30.08F
$$

VAZ088>098-222100-
SOUTHEAST VIRGINIA

CITY           SKY/WX    TMP DP  RH WIND       PRES   REMARKS
NORFOLK        CLOUDY    48  45  89 NE12      30.04F
VIRGINIA BEACH LGT RAIN  51  48  89 NE18G29   30.01F FOG
NORFOLK NAVAL  DRIZZLE   50  45  83 NE15      30.06S FOG
WEST POINT*    CLOUDY    42  39  90 CALM      30.11F
SALUDA*        CLOUDY    41  39  95 N8        30.11R
NEWPORT NEWS   CLOUDY    46  42  86 NE10      30.07F FOG
LANGLEY AFB    LGT RAIN  45  43  93 N10       30.08R FOG
FORT EUSTIS    CLOUDY    43  43 100 N6        30.07R
WILLIAMSBURG*  CLOUDY    45  45 100 NE3       30.10S
HR EXEC AP*    CLOUDY    48  45  87 NE10G18   30.07R
FRANKLIN*      CLOUDY    45 N/A N/A N6        30.07R
WAKEFIELD      LGT RAIN  42  39  89 VRB7      30.06F FOG
$$

VAZ020-022-025-037-045-222100-
WEST CENTRAL AND SOUTHWEST VIRGINIA

CITY           SKY/WX    TMP DP  RH WIND       PRES   REMARKS
STAUNTON*      DRZL/FOG  34  32  92 NE5       30.12F VSB 1
WAYNESBORO*    CLOUDY    32  31  97 CALM      30.09F
HOT SPRINGS VA SNOW      30  30 100 E6        29.96S VSB<1/4
LYNCHBURG      CLOUDY    33  32  96 N9        30.11S FOG
DANVILLE       CLOUDY    37  34  89 NE7       30.09S FOG
SOUTH BOSTON*  CLOUDY    35  34  95 NE5       30.09F
MARTINSVILLE   CLOUDY    36  36 100 NE7       30.10F FOG
ROANOKE        DRIZZLE   36  34  92 CALM      30.10S FOG
BLACKSBURG     CLOUDY    33  32  94 E5        30.06S FOG
DUBLIN*        CLOUDY    36  36 100 E5        30.04R FOG
MARION*        CLOUDY    37  36  93 E9        30.01S FOG
HILLSVILLE*    FOG       36  35  99 NE5       29.99S VSB 1/2
RICHLANDS*     CLEAR     49  37  61 SE7       29.91S
WISE*          MOSUNNY   55  37  50 SE7       29.89F
ABINGDON*      MOSUNNY   57  42  57 SE13      29.90S
$$

MDZ021>025-VAZ099-100-222100-
SOUTHERN MARYLAND AND THE DELMARVA PENINSULA

CITY           SKY/WX    TMP DP  RH WIND       PRES   REMARKS
PATUXENT RIVER LGT RAIN  37  34  89 N12       30.14F FOG
BAY BRIDGE APT LGT RAIN  36  34  93 N6        30.17F
LEONARDTOWN    CLOUDY    36  34  93 NE5       30.15
DOVER          LGT RAIN  41  37  87 N7        30.16F
GEORGETOWN     LGT RAIN  41  38  89 NE7       30.16F FOG
EASTON         LGT RAIN  39  39 100 NE8       30.21F
CAMBRIDGE      CLOUDY    39  36  87 N8        30.14F
SALISBURY      LGT RAIN  45  41  86 NE13      30.13F FOG
OCEAN CITY     CLOUDY    45  42  89 NE12      30.14F
WALLOPS ISLAND LGT RAIN  45  44  97 NE20G26   30.10F
ACCOMACK*      CLOUDY    46  43  87 NE18      30.07F
$$

NCZ012>017-030>032-222100-
NORTH CENTRAL AND EASTERN NORTH CAROLINA

CITY           SKY/WX    TMP DP  RH WIND       PRES   REMARKS
ROANOKE RAPIDS DRIZZLE   37  37 100 N9        30.06F
RALEIGH        DRIZZLE   38  35  89 N6        30.05F FOG
ELIZABETH CITY LGT RAIN  55  51  86 NE13      29.99F FOG
AHOSKIE*       DRIZZLE   43  42  96 N6        30.07R
EDENTON*       CLOUDY    51  50  97 N8        30.00S
CURRITUCK*     RAIN      51  50  95 N9G16     30.01S
KILL DEVIL HLS CLOUDY    55  55 100 NE6       29.94F FOG
MANTEO         CLOUDY    56  56  99 N6        29.95F
CAPE HATTERAS  CLOUDY    55  55 100 N6        29.94R
TARBORO*       NOT AVBL
GOLDSBORO      CLOUDY    42  42  99 N13       30.00F FOG
WASHINGTON     DRIZZLE   46  46  97 N7        30.01F
GREENVILLE     CLOUDY    43  43 100 N10       30.05F FOG
NEW BERN       CLOUDY    51  47  86 MISG      30.00F
WILMINGTON     CLOUDY    46  45  96 N10       30.00S FOG
$$

VAZ048-222100-
ELSEWHERE

CITY           SKY/WX    TMP DP  RH WIND       PRES   REMARKS
HARRISBURG PA  CLOUDY    35  27  72 CALM      30.20F
BALTIMORE      LGT RAIN  35  31  85 CALM      30.18F FOG
ANNAPOLIS      LGT RAIN  35  33  92 N7        30.18F FOG
ANDREWS AFB      N/A    N/A N/A N/A NE9         N/A
PHILADELPHIA   CLOUDY    45  34  65 NE7       30.21F
HENDERSON NC   CLOUDY    37  35  94 N7        30.06F FOG
GREENSBORO     DRIZZLE   36  34  92 NE9       30.04F FOG
ROCKY MOUNT    CLOUDY    41  39  93 N9        30.04F FOG
$$

VAZ100-222100-
MARINE

STATION/POSITION TIME  TEMP    WIND        PRES    WAVE   SWELL
                       AIR SEA DIR/SP/G            HT/PER HT/PER
                 (UTC) (F)     (DEG/KT/KT) (MB)    (FT/S) (FT/S)
CAPE MAY NJ      2000   42 43   60/  3/  6 1021.4R
LEWES DE         2000   42 41   70/ 14/ 15 1021.4F
15NM E FENWICK I 2000   47 45              1020.6F   3/ 9
OCEAN-CITY-INLET 2000   45 43   50/  3/ 11 1020.4F
WACHAPREAGUE VA  2000   45 40   50/ 15/ 20 1018.0F
THOMAS POINT MD  2000   35 41   20/ 12/ 13 1022.7F
GOOSES REEF MD   2000   36     VRB 14/ 16  1019.9F   1/ 3
COVE POINT MD    2000   35      30/ 13/ 16 1020.6F
SOLOMONS ISLAND  2000      42                N/A
BISHOPS HEAD MD  2000   39 38   10/ 10/ 16 1019.5F
PINEY POINT MD   2000           40/  9/ 11   N/A
POTOMAC MD       2000   38 42   30/ 17/ 21 1018.5F   1/ 3
CAMBRIDGE MD     2000   38 39   20/  6/  8 1021.0F
LEWISETTA VA     2000   38 41   20/  9/ 13 1019.7F
RAPPAHANNOCK LGT 2000           40/ 15/ 17 1018.6R
STINGRAY PT      2000   42 43   20/ 17/ 21 1019.3R   2/ 3
YORK RVR RNG VA  2000   44      10/ 16/ 19 1017.6R
YORKTOWN VA      2000   43 45  360/ 11/ 14 1018.5R
JAMESTOWN VA     2000   41 45   30/  6/ 10   N/A     0
DOMINION TERM VA 2000   45      20/  9/ 14 1017.8R
KIPTOPEKE VA     2000      48   70/ 15/ 20   N/A
CHES BAY BRIDGE  2000   47 46   30/ 20/ 26 1016.2R
CAPE HENRY VA    2000   48      50/ 21/ 25 1015.4R
CHESAPEAKE LGHT  1900   49      40/ 26/ 27 1017.0F
WILLOUBY STN VA  2000   46      20/ 15/ 17 1018.0S
S CRANEY ISL VA  2000           20/ 11/ 16 1017.2S
CAPE HENRY BUOY  1900      48                N/A     6/ 6
1ST LANDING BUOY 2000   48 46   50/ 17/ 23 1016.4R   4/ 4
CAPE CHARLES BUO 2000      46                N/A     6/ 6   2/11
64NM E OF VA BCH 2000   59 54   80/ 21/ 25 1014.4F   9/ 7
DUCK PIER NC     2000   54 46   40/ 18/ 23 1013.9F
44100 DUCK FRF   2000      51                N/A     9/ 7
44056 DUCK FRF   2000      48                N/A     8/ 7
OREGON INLET NC  2000   54 48   50/  2/  4 1013.9F
HATTERAS NC      2000   53 53  320/  6/  7 1014.2F
DIAMOND SHLS NC  2000   70                 1013.2S   9/ 8
CAPE LOOKOUT NC  1900   51     320/ 11/ 12 1014.5F
$$


USA.gov is the U.S. government's official web portal to all federal, state and local government web resources and services.